Flag for Canada Weather past 2 weeks in Labrador City, Newfoundland and Labrador, Canada

Now
0 °F

Clear.


Feels Like: -15 °F
Forecast: -14 / 13 °F
Wind: 8 mph from Northwest

Location: Wabush Lake

Current Time: Mar 27, 2015 at 11:27:36 PM

Latest Report: Mar 27, 2015 at 11:00 PM


Visibility: 9 mi

Pressure: 29.89 "Hg

Humidity: 60%

Dew point: -11 °F

Location of Labrador CityLocation

Historic Weather in Labrador City — Graph

°F

Labrador City temperature yesterday

Maximum temperature yesterday: 28 °F (at 3:00 PM)
Minimum temperature yesterday: 14 °F (at 11:00 PM)
Average temperature yesterday: 22 °F

Past Weeks' High & Low Weather Summary

 TemperatureHumidityPressure
High30 °F (Mar 21, 3:00 PM)100% (Mar 26, 10:00 PM)30.35 "Hg (Mar 26, 10:00 PM)
Low-29 °F (Mar 15, 8:00 AM)23% (Mar 16, 3:00 PM)29.30 "Hg (Mar 23, 1:00 AM)
Average8 °F69%29.88 "Hg
* Reported Mar 12 10:00 PM — Mar 27 10:00 PM, Labrador City, Weather by CustomWeather, © 2015

Note: Actual official high and low records may vary slightly from our data, if they occured in-between our weather recording intervals... More about our weather records

Advertising

Labrador City weather history for previous 24 hours

 ConditionsComfort  
Time TempWeatherWind HumidityBarometerVisibility
10:00 PM
Fri, Mar 27
1 °FClear.6 mph50%29.88 "Hg15 mi
9:00 PM3 °FSunny.8 mph55%29.85 "Hg15 mi
8:00 PM7 °FSunny.8 mph51%29.83 "Hg15 mi
7:00 PM10 °FPassing clouds.9 mph47%29.79 "Hg15 mi
6:00 PM12 °FScattered clouds.12 mph44%29.77 "Hg15 mi
5:00 PM12 °FScattered clouds.13 mph48%29.75 "Hg15 mi
4:00 PM12 °FPartly sunny.8 mph48%29.74 "Hg15 mi
3:00 PM12 °FPartly sunny.10 mph48%29.74 "Hg15 mi
2:00 PM10 °FScattered clouds.12 mph61%29.74 "Hg15 mi
1:00 PM9 °FScattered clouds.9 mph61%29.74 "Hg15 mi
12:00 PM7 °FLight snow. Partly sunny.9 mph66%29.75 "Hg10 mi
11:00 AM5 °FLight snow. More clouds than sun.10 mph72%29.75 "Hg8 mi
10:00 AM3 °FLight snow. Mostly cloudy.10 mph78%29.73 "Hg5 mi
9:00 AM3 °FLight snow. Passing clouds.12 mph78%29.72 "Hg6 mi
8:00 AM3 °FLight snow. Mostly cloudy.12 mph85%29.69 "Hg6 mi
7:00 AM5 °FLight snow. Mostly cloudy.12 mph85%29.66 "Hg8 mi
6:00 AM7 °FLight snow. Overcast.12 mph85%29.63 "Hg5 mi
5:00 AM9 °FLight snow. Overcast.9 mph85%29.62 "Hg9 mi
4:57 AM9 °FLight snow. Overcast.10 mph85%29.62 "Hg9 mi
4:00 AM12 °FLight snow. Overcast.10 mph85%29.60 "Hg3 mi
3:00 AM16 °FLight snow. Overcast.10 mph86%29.58 "Hg9 mi
2:00 AM18 °FLight snow. Mostly cloudy.6 mph86%29.55 "Hg9 mi
1:00 AM19 °FLight snow. Overcast.13 mph93%29.54 "Hg9 mi
12:00 AM16 °FPassing clouds.3 mph100%29.53 "Hg9 mi
11:00 PM
Thu, Mar 26
14 °FPartly cloudy.5 mph92%29.53 "Hg9 mi
Weather by CustomWeather, © 2015

See weather overviewHow to use our weather pages